| time (UTC) | temp F | wind direction | speed MPH | gust MPH | rain 1hr in | rain 24hr in | rain mn in | humidity % | barometer mb |
| 20260507004005 | 82 | 225 | 4.0 | 9.0 | 0.00 | 0.00 | 0.00 | 67 | 1015.9 |
| 20260507003502 | 83 | 224 | 4.0 | 8.0 | 0.00 | 0.00 | 0.00 | 66 | 1015.9 |
| 20260507003015 | 83 | 238 | 4.0 | 10.0 | 0.00 | 0.00 | 0.00 | 66 | 1015.7 |
| 20260507002504 | 83 | 246 | 3.0 | 10.0 | 0.00 | 0.00 | 0.00 | 65 | 1015.7 |
| 20260507002003 | 84 | 256 | 6.0 | 10.0 | 0.00 | 0.00 | 0.00 | 65 | 1015.7 |
| 20260507001508 | 84 | 215 | 5.0 | 10.0 | 0.00 | 0.00 | 0.00 | 64 | 1015.7 |
| 20260507001004 | 85 | 239 | 4.0 | 10.0 | 0.00 | 0.00 | 0.00 | 63 | 1015.7 |
| 20260507000503 | 86 | 229 | 5.0 | 9.0 | 0.00 | 0.00 | 0.00 | 62 | 1015.7 |
| 20260507000008 | 86 | 238 | 5.0 | 10.0 | 0.00 | 0.00 | 0.00 | 60 | 1015.6 |
| 20260506235504 | 87 | 234 | 4.0 | 10.0 | 0.00 | 0.00 | 0.00 | 58 | 1015.6 |
| 20260506235003 | 88 | 223 | 5.0 | 9.0 | 0.00 | 0.00 | 0.00 | 57 | 1015.5 |
| 20260506234507 | 89 | 260 | 5.0 | 8.0 | 0.00 | 0.00 | 0.00 | 55 | 1015.3 |
| 20260506234003 | 90 | 274 | 2.0 | 8.0 | 0.00 | 0.00 | 0.00 | 54 | 1015.3 |
| 20260506233502 | 91 | 195 | 5.0 | 8.0 | 0.00 | 0.00 | 0.00 | 39 | 1015.2 |
| 20260506233011 | 91 | 196 | 0.0 | 3.0 | 0.00 | 0.00 | 0.00 | 39 | 1015.2 |
| 20260506232505 | 92 | 196 | 1.0 | 4.0 | 0.00 | 0.00 | 0.00 | 40 | 1015.2 |
| 20260506232004 | 92 | 198 | 1.0 | 4.0 | 0.00 | 0.00 | 0.00 | 36 | 1015.3 |
| 20260506231508 | 93 | 193 | 2.0 | 6.0 | 0.00 | 0.00 | 0.00 | 36 | 1015.3 |
| 20260506231005 | 94 | 198 | 3.0 | 6.0 | 0.00 | 0.00 | 0.00 | 35 | 1015.3 |
| 20260506230503 | 96 | 217 | 2.0 | 5.0 | 0.00 | 0.00 | 0.00 | 34 | 1015.3 |
| 20260506230013 | 97 | 136 | 1.0 | 5.0 | 0.00 | 0.00 | 0.00 | 35 | 1015.2 |
| 20260506225503 | 98 | 192 | 1.0 | 5.0 | 0.00 | 0.00 | 0.00 | 32 | 1015.3 |
| 20260506225004 | 99 | 167 | 2.0 | 5.0 | 0.00 | 0.00 | 0.00 | 34 | 1015.4 |
| 20260506224511 | 99 | 220 | 0.0 | 2.0 | 0.00 | 0.00 | 0.00 | 35 | 1015.3 |
| 20260506224003 | 99 | 220 | 0.0 | 3.0 | 0.00 | 0.00 | 0.00 | 32 | 1015.4 |
| 20260506222504 | 100 | 209 | 4.0 | 7.0 | 0.00 | 0.00 | 0.00 | 31 | 1015.5 |
| 20260506222005 | 101 | 190 | 1.0 | 4.0 | 0.00 | 0.00 | 0.00 | 32 | 1015.5 |
| 20260506221510 | 100 | 156 | 0.0 | 3.0 | 0.00 | 0.00 | 0.00 | 32 | 1015.5 |
| 20260506220012 | 101 | 232 | 2.0 | 5.0 | 0.00 | 0.00 | 0.00 | 32 | 1015.5 |
| 20260506215506 | 101 | 142 | 1.0 | 5.0 | 0.00 | 0.00 | 0.00 | 32 | 1015.5 |
| 20260506215002 | 101 | 107 | 3.0 | 6.0 | 0.00 | 0.00 | 0.00 | 32 | 1015.5 |
| 20260506214518 | 101 | 135 | 1.0 | 6.0 | 0.00 | 0.00 | 0.00 | 33 | 1015.5 |
| 20260506214007 | 101 | 148 | 1.0 | 8.0 | 0.00 | 0.00 | 0.00 | 33 | 1015.5 |
| 20260506213503 | 101 | 154 | 4.0 | 8.0 | 0.00 | 0.00 | 0.00 | 32 | 1015.5 |
| 20260506213013 | 101 | 200 | 3.0 | 6.0 | 0.00 | 0.00 | 0.00 | 32 | 1015.6 |
| 20260506212004 | 100 | 225 | 2.0 | 9.0 | 0.00 | 0.00 | 0.00 | 32 | 1015.6 |
| 20260506211510 | 99 | 204 | 1.0 | 10.0 | 0.00 | 0.00 | 0.00 | 36 | 1015.6 |
| 20260506210505 | 99 | 220 | 3.0 | 12.0 | 0.00 | 0.00 | 0.00 | 32 | 1015.5 |
| 20260506210008 | 99 | 192 | 5.0 | 12.0 | 0.00 | 0.00 | 0.00 | 34 | 1015.4 |
| 20260506205003 | 99 | 213 | 5.0 | 10.0 | 0.00 | 0.00 | 0.00 | 36 | 1015.5 |
| 20260506204515 | 99 | 233 | 5.0 | 14.0 | 0.00 | 0.00 | 0.00 | 38 | 1015.5 |
| 20260506204003 | 99 | 209 | 7.0 | 14.0 | 0.00 | 0.00 | 0.00 | 34 | 1015.5 |
| 20260506203502 | 99 | 215 | 3.0 | 8.0 | 0.00 | 0.00 | 0.00 | 35 | 1015.6 |
| 20260506203015 | 99 | 329 | 2.0 | 7.0 | 0.00 | 0.00 | 0.00 | 35 | 1015.6 |
| 20260506202503 | 99 | 305 | 1.0 | 8.0 | 0.00 | 0.00 | 0.00 | 37 | 1015.7 |
| 20260506202007 | 99 | 265 | 4.0 | 10.0 | 0.00 | 0.00 | 0.00 | 38 | 1015.8 |
| 20260506201515 | 99 | 207 | 1.0 | 10.0 | 0.00 | 0.00 | 0.00 | 38 | 1015.7 |
| 20260506201003 | 99 | 215 | 4.0 | 8.0 | 0.00 | 0.00 | 0.00 | 42 | 1015.7 |
| 20260506200502 | 98 | 169 | 4.0 | 10.0 | 0.00 | 0.00 | 0.00 | 40 | 1015.8 |
| 20260506200015 | 98 | 182 | 2.0 | 10.0 | 0.00 | 0.00 | 0.00 | 37 | 1015.8 |
| 20260506195007 | 98 | 188 | 7.0 | 12.0 | 0.00 | 0.00 | 0.00 | 36 | 1015.7 |
| 20260506194514 | 99 | 192 | 3.0 | 12.0 | 0.00 | 0.00 | 0.00 | 41 | 1015.7 |
| 20260506193506 | 98 | 216 | 2.0 | 11.0 | 0.00 | 0.00 | 0.00 | 41 | 1016.0 |
| 20260506193012 | 99 | 213 | 6.0 | 11.0 | 0.00 | 0.00 | 0.00 | 41 | 1016.1 |
| 20260506192506 | 98 | 235 | 4.0 | 9.0 | 0.00 | 0.00 | 0.00 | 42 | 1016.1 |
| 20260506192006 | 98 | 233 | 2.0 | 11.0 | 0.00 | 0.00 | 0.00 | 41 | 1016.1 |
| 20260506191514 | 97 | 191 | 6.0 | 11.0 | 0.00 | 0.00 | 0.00 | 40 | 1016.2 |
| 20260506191006 | 97 | 235 | 3.0 | 9.0 | 0.00 | 0.00 | 0.00 | 43 | 1016.3 |
| 20260506190506 | 97 | 225 | 4.0 | 10.0 | 0.00 | 0.00 | 0.00 | 44 | 1016.4 |
| 20260506190008 | 96 | 110 | 2.0 | 10.0 | 0.00 | 0.00 | 0.00 | 43 | 1016.5 |
| 20260506185009 | 96 | 188 | 6.0 | 11.0 | 0.00 | 0.00 | 0.00 | 44 | 1016.6 |
| 20260506184522 | 96 | 224 | 6.0 | 11.0 | 0.00 | 0.00 | 0.00 | 45 | 1016.7 |
| 20260506184007 | 96 | 322 | 0.0 | 12.0 | 0.00 | 0.00 | 0.00 | 42 | 1016.8 |
| 20260506181007 | 95 | 185 | 4.0 | 6.0 | 0.00 | 0.00 | 0.00 | 47 | 1017.0 |
| 20260506180506 | 94 | 297 | 2.0 | 11.0 | 0.00 | 0.00 | 0.00 | 48 | 1017.1 |
| 20260506180016 | 94 | 52 | 3.0 | 11.0 | 0.00 | 0.00 | 0.00 | 49 | 1017.2 |
| 20260506175506 | 94 | 215 | 2.0 | 9.0 | 0.00 | 0.00 | 0.00 | 49 | 1017.2 |
| 20260506175006 | 94 | 229 | 3.0 | 12.0 | 0.00 | 0.00 | 0.00 | 51 | 1017.3 |
| 20260506174513 | 94 | 196 | 7.0 | 12.0 | 0.00 | 0.00 | 0.00 | 46 | 1017.3 |
| 20260506174007 | 93 | 216 | 2.0 | 12.0 | 0.00 | 0.00 | 0.00 | 49 | 1017.4 |
| 20260506173510 | 94 | 196 | 6.0 | 14.0 | 0.00 | 0.00 | 0.00 | 47 | 1017.5 |
| 20260506173009 | 93 | 173 | 4.0 | 14.0 | 0.00 | 0.00 | 0.00 | 50 | 1017.5 |
| 20260506172503 | 93 | 298 | 4.0 | 9.0 | 0.00 | 0.00 | 0.00 | 53 | 1017.5 |
| 20260506171507 | 92 | 189 | 3.0 | 11.0 | 0.00 | 0.00 | 0.00 | 50 | 1017.7 |
| 20260506171003 | 91 | 189 | 3.0 | 13.0 | 0.00 | 0.00 | 0.00 | 52 | 1017.7 |
| 20260506170512 | 91 | 215 | 5.0 | 13.0 | 0.00 | 0.00 | 0.00 | 48 | 1017.7 |
| 20260506170009 | 91 | 104 | 2.0 | 11.0 | 0.00 | 0.00 | 0.00 | 50 | 1017.8 |
| 20260506165503 | 91 | 163 | 4.0 | 11.0 | 0.00 | 0.00 | 0.00 | 52 | 1017.8 |
| 20260506165005 | 91 | 113 | 3.0 | 13.0 | 0.00 | 0.00 | 0.00 | 55 | 1018.0 |
| 20260506164512 | 90 | 215 | 4.0 | 13.0 | 0.00 | 0.00 | 0.00 | 56 | 1018.0 |
| 20260506164002 | 90 | 185 | 3.0 | 11.0 | 0.00 | 0.00 | 0.00 | 50 | 1017.9 |
| 20260506163014 | 91 | 188 | 4.0 | 10.0 | 0.00 | 0.00 | 0.00 | 52 | 1018.0 |
| 20260506162510 | 91 | 217 | 5.0 | 11.0 | 0.00 | 0.00 | 0.00 | 52 | 1018.0 |
| 20260506162006 | 90 | 236 | 5.0 | 11.0 | 0.00 | 0.00 | 0.00 | 52 | 1018.0 |
| 20260506161515 | 90 | 182 | 4.0 | 11.0 | 0.00 | 0.00 | 0.00 | 51 | 1017.9 |
| 20260506160011 | 89 | 171 | 5.0 | 14.0 | 0.00 | 0.00 | 0.00 | 56 | 1018.0 |
| 20260506155507 | 89 | 176 | 7.0 | 12.0 | 0.00 | 0.00 | 0.00 | 56 | 1017.9 |
| 20260506155007 | 89 | 128 | 0.0 | 10.0 | 0.00 | 0.00 | 0.00 | 58 | 1018.0 |
| 20260506154506 | 89 | 146 | 4.0 | 10.0 | 0.00 | 0.00 | 0.00 | 55 | 1018.0 |
| 20260506154003 | 89 | 142 | 2.0 | 10.0 | 0.00 | 0.00 | 0.00 | 57 | 1018.0 |
| 20260506153503 | 88 | 155 | 4.0 | 11.0 | 0.00 | 0.00 | 0.00 | 56 | 1018.1 |
| 20260506153015 | 88 | 153 | 5.0 | 12.0 | 0.00 | 0.00 | 0.00 | 57 | 1018.2 |
| 20260506152503 | 88 | 206 | 4.0 | 12.0 | 0.00 | 0.00 | 0.00 | 56 | 1018.2 |
| 20260506151516 | 87 | 139 | 6.0 | 13.0 | 0.00 | 0.00 | 0.00 | 60 | 1018.1 |
| 20260506151003 | 86 | 199 | 3.0 | 13.0 | 0.00 | 0.00 | 0.00 | 59 | 1018.1 |
| 20260506150505 | 86 | 160 | 4.0 | 11.0 | 0.00 | 0.00 | 0.00 | 62 | 1018.1 |
| 20260506150022 | 85 | 157 | 3.0 | 11.0 | 0.00 | 0.00 | 0.00 | 62 | 1018.1 |
| 20260506145509 | 85 | 188 | 4.0 | 10.0 | 0.00 | 0.00 | 0.00 | 63 | 1018.1 |
| 20260506145003 | 85 | 188 | 4.0 | 9.0 | 0.00 | 0.00 | 0.00 | 64 | 1018.1 |
| 20260506144535 | 85 | 163 | 3.0 | 8.0 | 0.00 | 0.00 | 0.00 | 67 | 1018.1 |
| 20260506144007 | 84 | 188 | 3.0 | 8.0 | 0.00 | 0.00 | 0.00 | 69 | 1018.3 |
| 20260506143504 | 84 | 176 | 3.0 | 7.0 | 0.00 | 0.00 | 0.00 | 70 | 1018.2 |
| 20260506143013 | 83 | 160 | 2.0 | 9.0 | 0.00 | 0.00 | 0.00 | 70 | 1018.2 |
| 20260506142505 | 83 | 205 | 5.0 | 9.0 | 0.00 | 0.00 | 0.00 | 71 | 1018.2 |
| 20260506142008 | 82 | 175 | 2.0 | 7.0 | 0.00 | 0.00 | 0.00 | 70 | 1018.3 |
| 20260506141512 | 82 | 123 | 4.0 | 9.0 | 0.00 | 0.00 | 0.00 | 72 | 1018.3 |
| 20260506141009 | 81 | 159 | 3.0 | 10.0 | 0.00 | 0.00 | 0.00 | 72 | 1018.4 |
| 20260506140028 | 80 | 190 | 2.0 | 11.0 | 0.00 | 0.00 | 0.00 | 74 | 1018.2 |
| 20260506135504 | 80 | 142 | 4.0 | 11.0 | 0.00 | 0.00 | 0.00 | 75 | 1018.2 |
| 20260506134003 | 78 | 201 | 4.0 | 11.0 | 0.00 | 0.00 | 0.00 | 80 | 1018.2 |
| 20260506133509 | 78 | 62 | 2.0 | 9.0 | 0.00 | 0.00 | 0.00 | 81 | 1018.3 |
| 20260506133020 | 77 | 164 | 4.0 | 9.0 | 0.00 | 0.00 | 0.00 | 81 | 1018.2 |
| 20260506132511 | 76 | 148 | 2.0 | 7.0 | 0.00 | 0.00 | 0.00 | 83 | 1018.1 |
| 20260506132005 | 76 | 123 | 2.0 | 7.0 | 0.00 | 0.00 | 0.00 | 85 | 1018.1 |
| 20260506131523 | 75 | 80 | 3.0 | 8.0 | 0.00 | 0.00 | 0.00 | 86 | 1018.0 |
| 20260506130503 | 73 | 156 | 2.0 | 7.0 | 0.00 | 0.00 | 0.00 | 89 | 1018.0 |
| 20260506130018 | 72 | 165 | 3.0 | 7.0 | 0.00 | 0.00 | 0.00 | 90 | 1017.9 |
| 20260506125506 | 72 | 205 | 2.0 | 9.0 | 0.00 | 0.00 | 0.00 | 91 | 1017.8 |
| 20260506125008 | 71 | 144 | 4.0 | 9.0 | 0.00 | 0.00 | 0.00 | 91 | 1017.7 |
| 20260506124515 | 70 | 130 | 2.0 | 8.0 | 0.00 | 0.00 | 0.00 | 93 | 1017.7 |
| 20260506124008 | 69 | 117 | 3.0 | 6.0 | 0.00 | 0.00 | 0.00 | 93 | 1017.7 |
| 20260506123508 | 69 | 152 | 1.0 | 5.0 | 0.00 | 0.00 | 0.00 | 94 | 1017.8 |
| 20260506123015 | 68 | 140 | 1.0 | 3.0 | 0.00 | 0.00 | 0.00 | 95 | 1017.7 |
| 20260506122507 | 67 | 148 | 1.0 | 3.0 | 0.00 | 0.00 | 0.00 | 95 | 1017.7 |
| 20260506122007 | 67 | 129 | 0.0 | 4.0 | 0.00 | 0.00 | 0.00 | 96 | 1017.7 |
| 20260506121523 | 66 | 167 | 0.0 | 4.0 | 0.00 | 0.00 | 0.00 | 96 | 1017.6 |
| 20260506120507 | 64 | 154 | 0.0 | 2.0 | 0.00 | 0.00 | 0.00 | 95 | 1017.5 |
| 20260506120023 | 64 | 85 | 0.0 | 0.0 | 0.00 | 0.00 | 0.00 | 94 | 1017.6 |
| 20260506115509 | 64 | 85 | 0.0 | 0.0 | 0.00 | 0.00 | 0.00 | 94 | 1017.5 |
| 20260506114521 | 63 | 85 | 0.0 | 0.0 | 0.00 | 0.00 | 0.00 | 94 | 1017.5 |
| 20260506114012 | 63 | 85 | 0.0 | 0.0 | 0.00 | 0.00 | 0.00 | 94 | 1017.4 |
| 20260506113507 | 62 | 85 | 0.0 | 0.0 | 0.00 | 0.00 | 0.00 | 94 | 1017.4 |
| 20260506113020 | 62 | 85 | 0.0 | 0.0 | 0.00 | 0.00 | 0.00 | 94 | 1017.2 |
| 20260506112508 | 61 | 85 | 0.0 | 0.0 | 0.00 | 0.00 | 0.00 | 94 | 1017.2 |
| 20260506112007 | 61 | 85 | 0.0 | 0.0 | 0.00 | 0.00 | 0.00 | 93 | 1017.1 |
| 20260506111518 | 61 | 85 | 0.0 | 0.0 | 0.00 | 0.00 | 0.00 | 93 | 1017.1 |
| 20260506111015 | 61 | 85 | 0.0 | 0.0 | 0.00 | 0.00 | 0.00 | 93 | 1017.1 |
| 20260506110513 | 61 | 85 | 0.0 | 0.0 | 0.00 | 0.00 | 0.00 | 93 | 1017.2 |
| 20260506110014 | 61 | 85 | 0.0 | 0.0 | 0.00 | 0.00 | 0.00 | 93 | 1017.1 |
| 20260506104524 | 61 | 85 | 0.0 | 0.0 | 0.00 | 0.00 | 0.00 | 92 | 1016.7 |
| 20260506104007 | 61 | 85 | 0.0 | 0.0 | 0.00 | 0.00 | 0.00 | 92 | 1016.7 |
| 20260506103025 | 61 | 85 | 0.0 | 0.0 | 0.00 | 0.00 | 0.00 | 92 | 1016.6 |
| 20260506102507 | 61 | 85 | 0.0 | 0.0 | 0.00 | 0.00 | 0.00 | 92 | 1016.6 |
| 20260506101529 | 61 | 85 | 0.0 | 0.0 | 0.00 | 0.00 | 0.00 | 91 | 1016.7 |
| 20260506101012 | 61 | 85 | 0.0 | 0.0 | 0.00 | 0.00 | 0.00 | 91 | 1016.7 |
| 20260506100505 | 61 | 85 | 0.0 | 0.0 | 0.00 | 0.00 | 0.00 | 91 | 1016.7 |
| 20260506100024 | 62 | 85 | 0.0 | 0.0 | 0.00 | 0.00 | 0.00 | 91 | 1016.7 |
| 20260506095510 | 62 | 85 | 0.0 | 0.0 | 0.00 | 0.00 | 0.00 | 91 | 1016.7 |
| 20260506095010 | 62 | 85 | 0.0 | 0.0 | 0.00 | 0.00 | 0.00 | 91 | 1016.6 |
| 20260506094008 | 62 | 85 | 0.0 | 0.0 | 0.00 | 0.00 | 0.00 | 91 | 1016.6 |
| 20260506093509 | 62 | 85 | 0.0 | 0.0 | 0.00 | 0.00 | 0.00 | 91 | 1016.5 |
| 20260506093030 | 62 | 85 | 0.0 | 0.0 | 0.00 | 0.00 | 0.00 | 91 | 1016.5 |
| 20260506092011 | 62 | 85 | 0.0 | 0.0 | 0.00 | 0.00 | 0.00 | 91 | 1016.4 |
| 20260506091524 | 62 | 85 | 0.0 | 0.0 | 0.00 | 0.00 | 0.00 | 91 | 1016.4 |
| 20260506091012 | 62 | 85 | 0.0 | 0.0 | 0.00 | 0.00 | 0.00 | 91 | 1016.3 |
| 20260506090513 | 62 | 85 | 0.0 | 0.0 | 0.00 | 0.00 | 0.00 | 91 | 1016.4 |
| 20260506090029 | 62 | 85 | 0.0 | 0.0 | 0.00 | 0.00 | 0.00 | 91 | 1016.3 |
| 20260506085511 | 62 | 85 | 0.0 | 0.0 | 0.00 | 0.00 | 0.00 | 91 | 1016.4 |
| 20260506085008 | 62 | 85 | 0.0 | 0.0 | 0.00 | 0.00 | 0.00 | 91 | 1016.3 |
| 20260506084536 | 62 | 85 | 0.0 | 0.0 | 0.00 | 0.00 | 0.00 | 91 | 1016.5 |
| 20260506084004 | 62 | 85 | 0.0 | 0.0 | 0.00 | 0.00 | 0.00 | 91 | 1016.5 |
| 20260506083007 | 62 | 85 | 0.0 | 0.0 | 0.00 | 0.00 | 0.00 | 91 | 1016.5 |
| 20260506082508 | 62 | 85 | 0.0 | 0.0 | 0.00 | 0.00 | 0.00 | 91 | 1016.4 |
| 20260506082009 | 62 | 85 | 0.0 | 0.0 | 0.00 | 0.00 | 0.00 | 91 | 1016.5 |
| 20260506081507 | 62 | 85 | 0.0 | 0.0 | 0.00 | 0.00 | 0.00 | 90 | 1016.7 |
| 20260506081003 | 62 | 85 | 0.0 | 0.0 | 0.00 | 0.00 | 0.00 | 90 | 1016.7 |
| 20260506080504 | 62 | 85 | 0.0 | 0.0 | 0.00 | 0.00 | 0.00 | 89 | 1016.5 |
| 20260506073504 | 62 | 85 | 0.0 | 0.0 | 0.00 | 0.00 | 0.00 | 89 | 1016.5 |
| 20260506073018 | 62 | 85 | 0.0 | 0.0 | 0.00 | 0.00 | 0.00 | 89 | 1016.6 |
| 20260506072509 | 62 | 85 | 0.0 | 0.0 | 0.00 | 0.00 | 0.00 | 89 | 1016.7 |
| 20260506072004 | 63 | 85 | 0.0 | 0.0 | 0.00 | 0.00 | 0.00 | 88 | 1016.7 |
| 20260506071517 | 63 | 85 | 0.0 | 0.0 | 0.00 | 0.00 | 0.00 | 88 | 1016.7 |
| 20260506071007 | 63 | 85 | 0.0 | 0.0 | 0.00 | 0.00 | 0.00 | 88 | 1016.8 |
| 20260506062502 | 63 | 85 | 0.0 | 0.0 | 0.00 | 0.00 | 0.00 | 88 | 1017.1 |
| 20260506062008 | 63 | 85 | 0.0 | 0.0 | 0.00 | 0.00 | 0.00 | 88 | 1017.2 |
| 20260506061518 | 63 | 85 | 0.0 | 0.0 | 0.00 | 0.00 | 0.00 | 88 | 1017.2 |
| 20260506061004 | 63 | 85 | 0.0 | 0.0 | 0.00 | 0.00 | 0.00 | 88 | 1017.2 |
| 20260506060505 | 63 | 85 | 0.0 | 0.0 | 0.00 | 0.00 | 0.00 | 88 | 1017.2 |
| 20260506051004 | 64 | 85 | 0.0 | 0.0 | 0.00 | 0.00 | 0.00 | 84 | 1017.7 |
| 20260506050510 | 64 | 85 | 0.0 | 0.0 | 0.00 | 0.00 | 0.00 | 83 | 1017.7 |
| 20260506045004 | 65 | 85 | 0.0 | 0.0 | 0.00 | 0.00 | 0.00 | 82 | 1017.7 |
| 20260506044538 | 65 | 85 | 0.0 | 0.0 | 0.00 | 0.00 | 0.00 | 81 | 1017.8 |
| 20260506044004 | 65 | 85 | 0.0 | 0.0 | 0.00 | 0.00 | 0.00 | 81 | 1017.8 |
| 20260506043508 | 66 | 85 | 0.0 | 0.0 | 0.00 | 0.00 | 0.00 | 81 | 1017.8 |
| 20260506043010 | 66 | 85 | 0.0 | 0.0 | 0.00 | 0.00 | 0.00 | 81 | 1017.7 |
| 20260506042505 | 66 | 85 | 0.0 | 0.0 | 0.00 | 0.00 | 0.00 | 80 | 1017.6 |
| 20260506041514 | 66 | 85 | 0.0 | 0.0 | 0.00 | 0.00 | 0.00 | 80 | 1017.6 |
| 20260506041007 | 66 | 85 | 0.0 | 0.0 | 0.00 | 0.00 | 0.00 | 79 | 1017.7 |
| 20260506040505 | 67 | 85 | 0.0 | 0.0 | 0.00 | 0.00 | 0.00 | 79 | 1017.6 |
| 20260506040016 | 67 | 85 | 0.0 | 0.0 | 0.00 | 0.00 | 0.00 | 79 | 1017.7 |
| 20260506035508 | 67 | 85 | 0.0 | 0.0 | 0.00 | 0.00 | 0.00 | 79 | 1017.7 |
| 20260506035009 | 67 | 85 | 0.0 | 0.0 | 0.00 | 0.00 | 0.00 | 79 | 1017.7 |
| 20260506034511 | 67 | 85 | 0.0 | 0.0 | 0.00 | 0.00 | 0.00 | 79 | 1017.7 |
| 20260506034008 | 67 | 85 | 0.0 | 0.0 | 0.00 | 0.00 | 0.00 | 78 | 1017.7 |
| 20260506033514 | 67 | 85 | 0.0 | 0.0 | 0.00 | 0.00 | 0.00 | 78 | 1017.6 |
| 20260506033010 | 67 | 85 | 0.0 | 0.0 | 0.00 | 0.00 | 0.00 | 78 | 1017.7 |
| 20260506032506 | 67 | 85 | 0.0 | 0.0 | 0.00 | 0.00 | 0.00 | 78 | 1017.9 |
| 20260506032003 | 68 | 85 | 0.0 | 0.0 | 0.00 | 0.00 | 0.00 | 77 | 1017.8 |
| 20260506031523 | 68 | 85 | 0.0 | 0.0 | 0.00 | 0.00 | 0.00 | 77 | 1017.7 |
| 20260506031006 | 68 | 85 | 0.0 | 0.0 | 0.00 | 0.00 | 0.00 | 77 | 1017.7 |
| 20260506030504 | 68 | 85 | 0.0 | 0.0 | 0.00 | 0.00 | 0.00 | 76 | 1017.6 |
| 20260506030018 | 69 | 85 | 0.0 | 0.0 | 0.00 | 0.00 | 0.00 | 75 | 1017.6 |
| 20260506025504 | 69 | 85 | 0.0 | 0.0 | 0.00 | 0.00 | 0.00 | 75 | 1017.7 |
| 20260506025008 | 69 | 85 | 0.0 | 0.0 | 0.00 | 0.00 | 0.00 | 74 | 1017.8 |
| 20260506024529 | 69 | 85 | 0.0 | 0.0 | 0.00 | 0.00 | 0.00 | 74 | 1017.6 |
| 20260506024008 | 70 | 85 | 0.0 | 0.0 | 0.00 | 0.00 | 0.00 | 73 | 1017.5 |
| 20260506023505 | 70 | 85 | 0.0 | 0.0 | 0.00 | 0.00 | 0.00 | 72 | 1017.4 |
| 20260506023020 | 70 | 85 | 0.0 | 0.0 | 0.00 | 0.00 | 0.00 | 72 | 1017.5 |
| 20260506022513 | 70 | 85 | 0.0 | 0.0 | 0.00 | 0.00 | 0.00 | 71 | 1017.6 |
| 20260506022013 | 71 | 85 | 0.0 | 0.0 | 0.00 | 0.00 | 0.00 | 71 | 1017.5 |
| 20260506021516 | 71 | 85 | 0.0 | 0.0 | 0.00 | 0.00 | 0.00 | 70 | 1017.4 |
| 20260506020503 | 72 | 85 | 0.0 | 0.0 | 0.00 | 0.00 | 0.00 | 68 | 1017.3 |
| 20260506015504 | 73 | 85 | 0.0 | 0.0 | 0.00 | 0.00 | 0.00 | 67 | 1017.2 |
| 20260506015010 | 73 | 85 | 0.0 | 1.0 | 0.00 | 0.00 | 0.00 | 67 | 1017.0 |
| 20260506014523 | 73 | 85 | 0.0 | 2.0 | 0.00 | 0.00 | 0.00 | 67 | 1017.0 |
| 20260506014005 | 73 | 85 | 0.0 | 3.0 | 0.00 | 0.00 | 0.00 | 66 | 1016.9 |
| 20260506013510 | 74 | 85 | 1.0 | 3.0 | 0.00 | 0.00 | 0.00 | 66 | 1016.8 |
| 20260506013023 | 74 | 98 | 0.0 | 4.0 | 0.00 | 0.00 | 0.00 | 66 | 1016.6 |
| 20260506012505 | 74 | 115 | 1.0 | 7.0 | 0.00 | 0.00 | 0.00 | 65 | 1016.5 |
| 20260506012010 | 74 | 75 | 2.0 | 7.0 | 0.00 | 0.00 | 0.00 | 65 | 1016.5 |
| 20260506011523 | 75 | 74 | 1.0 | 7.0 | 0.00 | 0.00 | 0.00 | 64 | 1016.4 |
| 20260506011011 | 75 | 109 | 2.0 | 7.0 | 0.00 | 0.00 | 0.00 | 64 | 1016.3 |
| 20260506010511 | 75 | 87 | 2.0 | 6.0 | 0.00 | 0.00 | 0.00 | 63 | 1016.3 |
| 20260506010045 | 75 | 81 | 1.0 | 7.0 | 0.00 | 0.00 | 0.00 | 63 | 1016.2 |
| 20260506005006 | 76 | 94 | 4.0 | 9.0 | 0.00 | 0.00 | 0.00 | 62 | 1016.0 |
| 20260506004515 | 76 | 63 | 3.0 | 9.0 | 0.00 | 0.00 | 0.00 | 61 | 1015.9 |